Temp_Advection
nan nan nan nan nan nan nan nan nan nan nan nan nan nan nan nan nan nan nan nan nan nan nan nan nan nan nan nan nan nan nan nan nan nan nan nan nan nan nan nan nan nan nan nan nan nan nan nan nan nan nan nan nan nan
nan 0 0 -0 -0 -0 0 0 0 0 0 0 0 0 0 0 0 0 0 0 0 0 -0 -0 0 0 0 0 0 0 -0 0 0 0 -0 -0 -0 -0 -0 -0 -0 -0 -0 -0 -0 -0 -0 -1 -0 -0 -0 -0 -0 nan
nan 0 0 0 0 0 0 0 0 0 0 0 0 0 0 0 0 0 -0 0 -0 -0 -0 -0 -0 -0 0 0 0 -0 -0 0 0 0 0 0 -0 -0 -0 -0 -0 -0 -1 -0 -1 -0 -1 -1 -0 -0 -0 -0 -0 nan
nan 0 0 0 0 0 0 0 0 0 0 0 0 0 0 0 0 0 0 0 0 -0 -0 -0 0 -0 0 -0 0 -0 0 0 0 -0 0 0 -0 -0 0 -0 -0 -0 -0 -0 -1 -1 -2 -2 -1 -0 -0 0 0 nan
nan 0 0 0 0 0 0 0 0 0 0 0 0 0 0 0 0 0 0 0 0 0 -0 -1 -0 0 0 0 0 0 1 0 -0 0 0 -0 -0 0 -0 0 -0 -1 0 -0 -1 -1 -1 -1 -1 -0 -0 -0 -0 nan
nan 0 0 0 0 0 0 0 0 0 0 0 0 0 0 0 0 -0 0 -0 -0 0 -0 -0 -0 0 0 0 0 0 0 -0 -0 -0 -0 -0 0 1 0 -1 -2 -1 -0 0 -0 -0 -0 -0 -0 -0 -0 -0 -0 nan
nan 0 0 0 0 0 0 0 0 0 0 0 0 0 0 0 0 -0 -0 0 0 -0 -0 -0 -0 -0 -0 -0 0 0 0 0 0 -0 -0 -0 -1 0 0 -1 -3 -1 -0 -0 -0 -0 -0 -0 -1 -1 -0 0 0 nan
nan 0 0 0 0 0 0 0 0 0 0 0 0 0 0 0 0 0 0 0 0 -0 0 0 -0 -0 0 -0 -0 0 0 0 -0 0 -0 -0 0 1 -0 -1 -1 -1 -0 0 -0 -0 -0 -1 -1 -1 -0 -0 -0 nan
nan 0 0 0 0 0 0 0 0 0 0 0 0 -0 -0 -0 0 0 0 0 0 -0 -0 -0 0 -0 -0 -0 0 0 0 -0 -0 0 -0 0 0 -0 -1 -0 -0 -0 -0 -0 -1 -1 -1 -1 -2 -2 -1 -1 0 nan
nan 0 0 0 0 0 0 0 0 0 0 -0 0 -0 -0 0 0 -0 -0 0 0 0 -0 -0 0 -0 -0 -0 0 0 0 0 -0 -0 0 0 -0 -1 1 1 0 -0 -0 -1 -1 -1 -1 -1 -1 -1 -2 -2 -1 nan
nan 0 0 0 0 0 0 0 0 0 -0 -0 -0 -0 0 0 -0 0 0 -0 -0 -0 -0 -0 0 -0 0 0 -0 0 0 -0 -0 -0 -0 -0 0 0 -0 0 0 -0 -0 -0 -0 -1 -1 -0 -1 -1 -1 -2 -2 nan
nan 0 0 0 0 0 0 0 0 0 0 0 -0 -0 -0 0 -0 -0 0 0 0 -0 0 0 0 0 -0 0 -0 0 0 0 -0 0 0 -0 -0 -0 -0 0 0 -0 -0 -0 -0 -0 -0 -0 -1 -1 -2 -2 -1 nan
nan 0 0 0 0 -0 0 0 0 0 0 0 0 0 0 -0 -0 -0 -0 -0 -0 -0 0 0 -0 -0 0 0 -0 0 -0 -0 -0 0 -0 -0 -0 -0 -0 -0 -0 -0 -0 -0 -0 -1 -0 -0 -0 0 -1 -2 -1 nan
nan 0 0 0 0 0 0 0 0 0 0 -0 -0 -0 0 -0 -0 -0 -0 0 0 0 -0 -0 0 0 0 0 0 -0 -0 0 -0 -0 -0 -0 -1 -0 -0 -0 -0 -1 -0 -0 -1 -0 0 0 -0 -0 -1 -1 -1 nan
nan 0 0 0 0 0 0 0 0 0 0 -0 -0 0 -0 -1 -0 -0 -0 -0 -0 0 -0 -0 0 0 0 0 -0 -0 -0 -0 -0 -0 -0 -0 -0 -0 -0 -0 -0 -1 -0 -0 -0 -1 -0 0 0 -0 -0 -0 -0 nan
nan 0 0 0 0 0 0 0 0 0 0 -0 0 -0 -0 -0 -0 0 0 -0 -0 0 0 0 0 -0 -0 -0 -0 -0 -0 -0 -0 -0 -0 -1 -0 -0 -0 -1 -1 -0 -0 -0 -0 -0 -0 -0 0 0 0 0 0 nan
nan -0 -0 0 0 0 0 0 0 0 0 0 0 -0 -0 0 -0 -0 0 -0 0 -0 0 0 -0 -0 -0 -0 -0 -0 -0 -0 -0 -1 -1 -0 -0 -0 -0 -0 -0 -0 -0 -0 -0 -0 -0 0 0 0 0 0 1 nan
nan 0 0 0 0 0 0 0 0 0 0 0 -0 -0 0 -0 -0 0 -0 0 0 0 -0 0 -0 0 -0 -0 -0 -0 -0 -1 -1 -1 -1 -1 -0 -0 -0 -1 -0 -0 -0 -0 -0 -0 0 0 0 0 1 1 1 nan
nan 0 0 0 0 0 0 0 0 0 0 0 0 0 -0 -0 0 0 0 0 0 0 0 0 0 -0 -1 -0 0 -0 0 0 -0 -1 -1 -1 -0 -0 -0 -0 -0 -0 -0 -0 -0 0 0 0 0 1 1 1 1 nan
nan 0 0 0 0 0 0 0 0 0 0 0 0 -0 -0 0 -0 0 0 0 0 -0 0 0 -0 -0 0 0 1 0 -0 0 0 -1 -1 -1 -0 -0 -1 -0 -0 -0 -0 -0 0 0 0 0 0 0 1 1 1 nan
nan 0 0 0 0 0 0 0 0 0 0 0 -0 -0 -0 0 -0 -0 -0 -0 -0 -0 -0 -0 0 0 0 0 0 0 0 0 0 0 -0 -1 -1 -0 -0 -0 -0 -0 -0 -0 0 0 0 0 0 0 0 0 0 nan
nan 0 0 0 -0 0 0 0 0 0 0 0 0 0 -0 -0 -0 0 0 -0 -0 0 0 -0 -0 -0 -1 -0 0 0 0 -0 -0 -0 -0 0 -0 -0 -0 -0 -0 -0 -0 0 0 0 0 0 0 1 0 0 1 nan
nan 0 -0 -0 0 0 0 0 0 0 -0 -0 -0 -0 -0 -0 0 0 -0 -0 0 0 -0 -0 -0 -0 -0 -1 -0 -0 -0 -0 -0 -0 -0 -0 -0 -0 -0 -0 -0 -0 -0 0 0 0 0 1 1 1 0 0 0 nan
nan 0 0 0 0 0 0 0 0 -0 -0 -0 -0 -0 -0 -0 -0 0 -0 0 0 -0 -0 -0 -0 -1 -0 -0 -0 -0 -0 -0 -0 -0 -0 0 0 -0 -0 -0 -0 0 0 0 0 -0 0 0 1 0 0 0 0 nan
nan 0 0 -0 0 -0 -0 -0 -0 -0 0 0 -0 -0 -0 -0 -0 -0 0 -0 -0 -0 -0 -0 -0 -0 -0 -1 -0 -0 -0 -0 -0 -0 -0 -0 0 0 0 0 0 0 0 0 0 0 -0 0 0 0 1 0 -0 nan
nan 0 0 0 0 -0 -0 -0 0 -0 0 -0 -1 -0 -0 -0 -0 0 -0 -0 -0 -0 -0 -0 -0 -0 0 0 0 0 0 0 -0 -0 -0 0 0 0 -0 0 -0 0 0 0 0 -0 -0 0 -0 -0 -0 1 1 nan
nan -0 0 0 0 -0 -0 -0 0 0 0 -0 -0 -0 -0 -0 -0 -0 -0 0 0 0 0 0 0 0 -0 0 0 0 0 0 0 -0 0 1 0 0 0 0 -1 -0 1 1 1 0 -1 -1 -0 -0 -1 -0 1 nan
nan -0 0 0 0 0 0 -0 -0 -0 -0 -0 0 -0 -0 -0 -0 -0 0 0 0 0 0 0 0 0 0 0 0 0 0 0 -0 0 1 1 1 0 0 -0 0 1 0 1 1 0 0 -0 -0 -0 -0 -1 -0 nan
nan 0 -0 -0 0 0 -0 -0 -0 -0 -0 0 0 -0 -0 0 -0 0 -0 0 0 0 -0 -0 0 0 0 0 0 0 0 0 -0 -0 1 1 1 1 1 0 -0 -0 -0 -0 0 1 1 0 0 0 -0 -1 -1 nan
nan 0 0 -0 -0 -0 -0 -0 0 0 0 0 0 -0 -0 -0 -0 -0 -0 -0 -0 -0 -0 -0 -0 0 0 0 0 0 0 0 0 0 0 -0 -0 -0 1 0 0 -0 0 0 -1 -0 0 0 0 0 -0 -0 -0 nan
nan 0 0 0 -0 -0 0 0 0 0 0 0 0 -0 -0 -0 -0 -0 -0 -0 -0 0 0 -0 0 0 0 0 0 0 0 0 0 0 0 0 -0 -0 0 0 0 0 0 0 -0 -0 -0 -0 -0 -0 -0 -0 -0 nan
nan 0 0 0 -0 -0 0 0 0 0 0 0 -0 -0 -0 -0 -0 -0 -0 -0 0 0 -0 -0 -0 0 0 1 0 0 0 0 0 0 1 0 0 -0 0 0 0 0 0 0 -0 0 0 -0 -0 -0 -0 -0 -0 nan
nan nan nan nan nan nan nan nan nan nan nan nan nan nan nan nan nan nan nan nan nan nan nan nan nan nan nan nan nan nan nan nan nan nan nan nan nan nan nan nan nan nan nan nan nan nan nan nan nan nan nan nan nan nan
Wind_Speed
32 35 29 27 27 22 20 18 15 14 12 8 6 7 6 4 3 3 3 3 4 2 2 4 2 2 2 2 1 3 2 1 2 1 3 4 3 4 5 6 8 5 4 4 5 5 8 12 2 2 3 10 7 6
30 27 27 25 24 23 20 18 17 15 11 7 7 5 3 2 2 3 3 2 1 2 3 4 6 9 10 3 0 2 3 5 3 2 3 4 3 3 6 4 6 4 4 5 4 2 9 21 3 7 4 4 9 14
30 30 28 27 26 23 22 19 16 10 8 9 6 4 4 3 2 2 4 3 3 3 5 4 2 7 14 12 13 4 6 7 4 6 4 3 3 3 3 4 6 7 17 6 8 2 10 15 19 23 20 11 14 5
28 22 19 17 16 16 16 12 10 12 11 8 7 7 4 3 2 3 2 2 2 1 2 2 5 6 9 9 7 11 14 10 10 8 4 2 1 4 4 7 8 9 12 9 17 20 28 34 31 27 27 19 13 16
24 21 20 20 18 16 16 15 13 11 11 10 7 4 3 2 2 2 2 2 4 3 3 8 13 6 8 12 14 9 16 15 14 7 3 3 6 8 8 8 11 16 16 13 17 24 24 26 31 32 33 33 30 24
21 20 20 19 18 18 17 15 14 12 9 6 4 4 4 4 4 2 2 5 2 4 1 3 3 3 9 7 9 11 12 13 15 6 6 9 21 10 4 7 20 35 30 35 32 38 40 42 42 42 37 34 35 34
21 18 18 17 17 16 15 14 11 9 7 6 5 4 5 6 5 3 3 4 4 4 2 4 4 2 10 6 4 4 9 10 13 6 9 17 24 18 8 15 45 34 32 35 37 37 42 44 41 33 37 39 38 35
16 16 17 17 16 16 15 13 10 9 7 6 5 5 6 5 4 1 1 2 2 1 1 1 3 4 3 2 3 5 6 9 8 8 7 10 12 13 6 15 23 26 24 24 26 30 32 32 34 39 43 45 40 32
20 19 18 18 17 14 13 11 9 8 8 8 7 8 7 3 3 2 1 0 4 2 2 3 1 2 3 5 10 6 6 2 7 5 5 3 3 6 8 13 25 33 31 37 39 31 35 36 35 41 38 36 35 32
20 18 17 17 15 13 12 11 11 9 8 10 10 4 2 2 5 3 3 1 1 2 3 3 1 2 4 4 3 4 5 3 2 5 4 3 5 17 14 20 30 33 33 34 32 31 30 30 30 34 37 42 35 30
19 18 17 16 13 12 12 12 10 8 8 7 4 3 4 5 2 2 1 1 0 2 4 4 4 2 4 2 3 4 2 2 3 2 2 2 3 4 10 26 33 33 33 32 36 38 37 37 35 33 33 31 34 31
18 18 16 14 13 13 12 11 9 7 5 5 4 7 4 2 2 2 1 1 2 2 4 2 2 4 5 4 3 5 3 2 5 2 3 2 2 13 27 31 33 36 38 38 37 37 36 32 30 32 31 27 27 24
18 16 14 12 11 11 10 9 7 5 6 5 2 3 2 1 3 3 3 3 1 3 3 1 3 4 3 3 5 2 3 4 6 3 3 1 13 28 33 39 40 42 40 39 38 34 29 24 21 23 25 28 18 18
16 14 13 11 9 9 8 7 7 6 3 2 2 2 3 1 3 3 1 1 2 2 1 4 3 3 3 2 3 2 4 3 3 3 1 4 28 34 39 39 38 41 43 37 37 29 26 10 4 12 16 16 25 24
14 12 11 9 8 7 7 8 8 5 2 1 2 2 3 6 4 4 5 4 3 3 2 3 4 4 3 2 2 3 3 4 3 3 3 24 33 40 40 39 40 43 38 38 32 24 17 8 4 7 11 13 16 17
11 9 8 8 7 6 7 9 8 5 1 2 2 2 4 1 4 4 6 8 6 3 1 1 2 2 4 3 3 5 3 3 3 4 23 30 38 39 39 41 41 38 37 32 26 18 12 3 5 9 12 13 13 14
8 5 6 6 7 8 9 7 4 3 2 3 4 8 10 9 7 3 4 5 5 7 2 2 1 7 3 3 3 2 2 4 16 25 31 36 36 40 40 39 39 36 31 26 20 15 8 3 6 10 14 14 14 16
5 4 6 7 9 8 6 6 2 3 4 6 4 4 7 8 8 8 7 7 6 5 4 4 3 1 4 3 3 3 9 22 27 32 35 40 39 37 36 36 32 29 24 21 15 9 6 4 8 14 17 18 20 22
4 5 5 5 6 3 2 4 3 3 6 4 7 10 9 9 12 13 12 11 9 8 3 3 3 3 3 4 5 19 27 29 31 36 38 36 31 34 34 30 27 22 17 15 12 8 5 8 13 16 19 21 25 25
7 7 6 5 6 2 2 2 4 3 2 3 4 5 5 5 7 7 6 6 8 5 7 3 4 8 5 12 18 25 30 31 30 31 35 35 36 32 31 23 22 18 13 9 3 4 9 12 13 15 20 24 27 28
8 6 6 6 5 5 4 3 2 2 4 3 4 5 4 5 5 4 4 6 9 5 5 8 9 14 16 21 25 26 27 25 26 27 33 37 33 28 23 19 17 13 8 4 3 8 10 14 15 16 20 23 25 26
8 6 2 4 3 3 2 3 2 3 3 3 4 3 4 3 3 3 4 5 4 3 5 9 14 18 22 24 24 21 21 22 24 25 22 21 25 23 20 16 12 9 5 5 7 10 12 14 16 20 23 26 27 30
3 5 5 4 4 4 2 2 2 2 1 2 4 3 3 2 2 3 3 4 3 4 8 12 15 17 19 18 17 17 17 19 23 21 18 20 16 15 11 9 7 3 5 8 11 16 19 22 25 29 32 34 35 37
6 4 3 3 3 2 1 1 1 2 2 2 1 4 3 2 4 2 2 1 2 8 11 14 17 18 17 15 17 19 19 20 22 15 15 14 13 11 7 6 5 4 7 11 15 20 23 27 29 32 35 38 39 40
2 1 1 1 2 2 1 2 2 2 1 1 2 3 2 3 2 2 1 2 8 11 14 17 17 16 17 19 19 19 18 22 18 13 13 7 6 7 6 6 7 9 10 17 22 26 29 32 35 37 38 39 38 37
1 2 2 4 3 3 3 0 2 3 0 2 4 3 3 2 2 2 1 7 10 15 18 19 20 20 19 17 19 18 19 19 11 8 10 8 6 4 6 11 14 15 16 23 29 32 35 36 36 36 36 34 32 33
2 4 3 4 3 2 2 1 1 1 0 2 2 2 1 2 2 1 5 8 15 17 16 16 15 16 18 17 13 11 9 13 15 12 10 10 11 11 13 18 21 22 23 26 28 28 29 30 31 32 33 32 32 31
2 5 4 6 4 3 3 1 3 3 3 1 1 1 2 2 1 4 6 13 14 14 14 13 12 14 13 11 11 10 6 6 6 12 17 20 22 23 23 24 24 22 21 22 24 25 26 28 30 31 31 32 31 29
2 4 5 3 2 3 4 5 3 3 2 2 1 2 2 3 5 9 10 12 12 14 15 15 13 10 8 7 7 8 7 9 14 18 20 22 22 22 22 23 23 23 23 24 24 25 26 28 29 30 31 31 30 28
2 6 3 3 3 3 3 5 3 3 3 4 4 4 5 6 6 7 8 10 11 13 14 15 14 12 11 9 10 10 13 11 9 12 16 20 21 21 21 21 22 23 25 26 28 28 27 28 28 28 28 28 26 25
3 5 2 2 1 2 2 4 3 3 3 3 4 6 5 5 5 4 6 10 10 12 12 13 12 11 8 8 9 11 11 9 11 16 19 21 21 20 21 22 23 23 24 25 27 27 27 27 27 27 26 25 24 22
3 3 2 0 1 1 2 2 2 2 2 2 2 3 3 3 2 3 5 8 8 10 11 12 12 11 9 9 11 10 10 11 15 15 18 21 22 23 23 24 24 24 25 26 26 26 24 25 25 24 23 23 21 20
2 3 2 0 1 1 1 1 1 1 2 2 2 3 3 2 2 2 4 6 8 9 9 10 10 10 10 13 11 12 14 15 15 16 18 20 22 23 24 24 24 23 23 24 24 22 22 21 21 21 20 19 18 18
Wind_Direction
162 153 161 159 161 162 161 164 164 163 162 160 158 156 156 160 171 171 160 166 152 120 108 211 231 205 218 246 261 74 334 221 291 263 255 245 245 252 259 249 241 210 205 191 212 235 256 347 104 224 75 47 40 20
158 157 151 161 164 164 164 167 169 169 171 178 169 160 174 174 166 135 119 118 144 137 251 258 264 237 209 223 224 163 296 333 332 343 349 335 345 339 331 288 333 285 228 264 259 251 312 325 75 93 35 338 316 311
156 160 167 170 172 168 167 166 170 174 193 165 174 173 195 171 142 136 102 95 60 349 305 277 318 310 230 253 234 219 252 253 262 300 319 283 267 354 285 276 326 324 324 303 314 336 297 305 303 312 302 298 301 355
144 142 146 154 154 155 163 174 182 182 176 176 171 160 157 120 118 121 114 117 150 89 312 278 300 318 264 272 207 236 246 252 267 279 266 249 281 271 238 262 260 264 308 304 286 284 292 286 279 280 287 293 293 312
146 166 175 178 181 178 173 174 177 174 163 165 178 186 208 210 175 176 223 209 198 137 339 303 296 292 246 269 267 265 238 250 260 261 230 238 244 258 260 267 261 257 254 250 257 262 266 276 282 285 290 294 295 298
137 139 144 151 158 163 164 165 166 163 172 181 187 197 193 172 153 123 110 47 7 215 66 304 314 300 295 309 249 254 237 245 237 228 232 235 245 265 275 262 265 254 257 256 261 264 264 268 272 275 279 283 287 290
149 151 156 161 167 171 171 168 169 173 170 165 166 162 138 147 150 119 114 113 63 59 104 284 285 272 329 348 332 264 226 236 233 243 229 242 250 252 262 264 267 278 277 276 274 276 276 275 274 273 269 271 272 271
156 159 161 160 159 160 162 163 164 162 162 154 161 160 147 146 143 123 239 218 278 35 227 282 275 279 341 313 281 226 229 229 226 235 257 252 261 211 245 257 277 286 291 287 285 281 284 284 279 267 264 264 264 267
153 155 155 156 154 154 153 154 153 151 152 146 133 130 121 114 119 204 133 161 189 219 288 229 239 290 332 278 283 276 230 269 247 206 216 243 213 222 257 305 317 307 301 295 295 290 286 277 276 269 266 267 257 255
154 152 153 151 153 154 150 149 149 141 142 137 137 98 108 170 130 112 41 139 163 210 224 260 277 282 304 307 274 286 205 229 260 227 192 217 245 254 291 293 294 301 301 302 292 292 289 278 273 269 260 253 255 252
151 150 149 149 153 150 150 151 147 142 139 147 137 134 142 136 109 131 109 45 52 273 219 238 276 279 288 215 256 262 266 279 270 213 238 238 223 161 313 322 320 317 312 306 300 296 286 282 272 265 261 257 238 243
144 146 148 148 146 147 151 156 154 154 149 152 148 126 139 119 99 90 120 111 221 256 164 241 273 260 275 272 273 263 245 245 253 159 248 241 98 338 331 326 325 323 321 315 312 303 300 288 271 258 251 245 236 237
141 143 148 147 149 156 161 168 155 139 136 143 144 115 127 51 54 148 223 283 288 194 226 257 329 304 289 267 271 279 263 242 316 231 237 111 346 332 333 335 328 328 325 324 322 326 323 305 263 242 232 226 226 211
142 140 141 144 148 157 166 169 169 163 140 127 128 3 151 220 243 196 232 115 117 172 321 320 287 247 258 277 255 262 255 295 264 244 15 354 333 330 332 329 326 326 330 330 337 340 352 346 207 207 207 216 217 226
138 138 138 140 143 138 144 162 161 163 142 127 137 212 214 232 250 233 248 246 264 273 319 316 265 237 268 265 228 279 252 250 263 0 338 327 327 329 328 327 327 329 331 336 342 345 354 13 65 161 185 194 194 206
142 142 152 154 150 151 161 161 168 172 247 135 224 261 231 280 222 226 259 259 244 228 187 185 261 314 257 219 228 222 252 269 10 338 321 324 326 324 323 328 331 330 334 339 344 347 347 347 166 169 180 191 195 201
149 140 162 177 166 152 155 159 157 198 200 214 241 238 251 285 272 258 230 236 232 174 193 152 164 228 297 267 265 259 324 343 330 322 323 321 319 320 327 329 333 333 338 342 346 356 8 75 141 147 142 142 151 154
143 164 161 161 169 166 184 193 210 211 243 231 238 271 230 240 258 267 274 249 213 205 178 218 279 226 230 241 280 7 329 323 323 319 315 317 325 327 325 331 332 337 344 350 351 360 31 93 130 131 135 139 141 142
160 156 178 185 189 200 199 196 210 241 237 245 252 262 264 264 264 262 255 252 237 209 213 223 250 226 237 304 341 317 320 319 312 312 313 320 321 324 331 336 331 339 344 354 7 30 63 119 127 135 139 146 141 142
166 166 180 202 182 204 242 217 216 251 264 267 264 274 263 244 260 268 262 239 215 196 207 222 225 264 291 291 303 311 313 315 314 310 311 318 327 331 329 336 333 335 337 345 22 99 116 116 124 135 140 142 141 139
196 200 202 208 224 235 221 223 230 243 262 259 273 282 275 264 273 263 268 225 224 218 237 240 254 267 283 295 308 314 311 313 311 310 305 310 324 325 333 337 338 341 347 1 90 113 119 119 125 133 137 133 134 135
210 213 168 171 232 204 242 223 237 277 269 275 298 274 276 276 262 237 237 219 243 251 258 286 296 304 305 311 314 314 314 315 313 314 318 324 324 328 334 339 344 357 36 82 105 112 116 123 130 131 132 129 130 129
226 197 179 202 195 204 243 236 245 267 316 313 318 309 249 264 255 277 256 234 260 287 310 312 312 314 313 317 319 325 331 327 326 327 330 330 335 330 335 350 353 22 92 106 122 124 123 130 132 129 128 128 128 125
156 168 187 196 200 171 193 225 253 306 315 331 359 296 300 300 302 250 263 151 278 321 328 327 329 329 330 336 338 341 342 340 335 334 339 337 352 354 6 22 45 83 117 130 131 128 129 127 128 127 125 123 121 120
192 229 195 50 142 115 51 358 352 13 269 256 15 306 342 320 273 261 283 21 334 334 335 337 338 339 333 334 339 344 352 347 337 341 346 355 10 12 53 74 95 108 127 131 127 124 122 123 121 120 119 116 115 116
173 205 146 179 169 154 191 165 212 227 138 324 241 289 321 296 273 277 32 327 330 337 338 338 335 333 339 343 338 346 354 356 358 10 21 36 43 62 97 106 107 108 124 126 125 123 121 120 119 120 122 122 121 120
191 229 177 179 161 168 139 180 203 191 188 214 273 328 333 275 269 42 321 330 334 336 337 336 333 332 332 337 345 350 2 14 20 42 49 66 81 94 107 112 115 116 123 119 118 120 122 123 122 121 119 119 118 117
166 178 171 172 175 191 157 165 166 207 234 237 296 282 227 237 286 333 329 334 335 339 342 346 343 339 337 343 349 359 25 36 61 75 82 88 92 96 98 98 99 107 114 119 120 121 122 121 120 119 118 116 113 112
145 157 161 132 165 203 215 198 208 195 206 192 184 273 280 270 307 320 333 343 345 348 353 360 6 6 8 12 28 49 67 91 101 93 93 96 98 96 100 105 110 113 114 114 114 115 117 118 119 118 116 114 112 111
162 167 163 171 163 227 190 202 208 208 219 229 250 276 286 294 306 318 335 345 353 3 5 5 6 14 29 51 76 91 104 93 101 110 113 110 107 109 111 113 116 118 121 123 121 120 120 118 117 114 112 110 111 110
159 177 173 191 237 242 225 214 229 241 247 250 246 260 274 296 307 320 342 356 2 6 9 17 21 28 46 75 95 111 104 77 103 114 114 110 109 111 113 113 114 116 117 117 117 117 117 116 113 111 110 109 107 105
164 179 177 109 243 268 186 200 218 244 248 234 263 258 282 290 293 306 340 356 6 15 19 21 31 41 58 86 98 100 112 106 121 118 116 116 117 117 117 116 116 117 117 115 114 113 113 111 110 109 107 106 104 101
149 173 191 208 150 159 217 245 243 277 241 242 240 249 244 261 267 304 342 359 13 20 28 37 50 63 82 100 105 118 121 120 120 122 122 123 121 120 119 119 119 120 119 115 113 112 111 110 108 106 104 102 100 97
Height
1417 1423 1430 1435 1442 1449 1455 1460 1465 1469 1471 1474 1475 1475 1479 1482 1483 1483 1485 1485 1486 1487 1488 1491 1493 1493 1495 1495 1496 1497 1499 1498 1499 1501 1494 1486 1479 1478 1475 1471 1474 1478 1482 1482 1481 1481 1476 1459 1455 1459 1462 1461 1462 1464
1420 1427 1432 1439 1445 1451 1456 1460 1464 1469 1472 1472 1476 1476 1480 1481 1484 1483 1485 1485 1485 1487 1491 1489 1491 1493 1493 1493 1495 1494 1496 1494 1496 1499 1495 1490 1485 1484 1483 1484 1472 1479 1474 1475 1470 1462 1458 1461 1463 1461 1461 1462 1462 1462
1423 1429 1434 1440 1445 1450 1455 1460 1466 1469 1472 1472 1476 1477 1481 1481 1483 1484 1484 1486 1486 1488 1489 1489 1490 1490 1489 1490 1493 1495 1494 1493 1496 1497 1498 1494 1494 1488 1493 1485 1480 1475 1472 1470 1469 1458 1458 1458 1458 1459 1459 1460 1460 1459
1424 1431 1436 1441 1447 1452 1457 1462 1466 1470 1472 1474 1476 1478 1480 1481 1483 1483 1485 1485 1488 1488 1491 1489 1488 1487 1488 1489 1490 1490 1490 1492 1495 1496 1496 1495 1495 1487 1488 1482 1481 1480 1477 1472 1464 1460 1458 1450 1453 1455 1453 1454 1454 1455
1428 1433 1438 1445 1450 1455 1460 1463 1467 1470 1472 1474 1477 1478 1480 1482 1483 1484 1484 1485 1487 1489 1492 1489 1485 1485 1486 1488 1487 1485 1486 1489 1492 1493 1492 1491 1485 1485 1478 1476 1473 1473 1469 1467 1455 1458 1455 1451 1449 1448 1446 1445 1447 1448
1432 1437 1443 1448 1453 1458 1461 1466 1468 1470 1473 1475 1477 1479 1480 1481 1482 1484 1486 1486 1485 1487 1491 1490 1486 1485 1485 1485 1483 1482 1484 1487 1489 1487 1484 1480 1478 1481 1478 1470 1463 1453 1457 1455 1449 1450 1447 1445 1444 1443 1441 1439 1439 1439
1436 1442 1447 1451 1455 1459 1463 1466 1469 1471 1473 1475 1477 1479 1480 1480 1482 1484 1487 1488 1488 1488 1491 1491 1486 1484 1483 1481 1480 1480 1482 1482 1483 1481 1476 1474 1470 1476 1469 1462 1436 1448 1450 1446 1443 1442 1436 1438 1432 1433 1430 1430 1431 1431
1439 1444 1449 1453 1457 1461 1464 1467 1469 1471 1473 1475 1478 1479 1480 1481 1483 1485 1485 1488 1489 1490 1490 1492 1488 1484 1482 1481 1481 1479 1478 1477 1476 1472 1468 1464 1463 1464 1457 1443 1444 1441 1438 1435 1433 1430 1425 1423 1422 1420 1419 1419 1421 1422
1443 1447 1451 1455 1459 1462 1465 1467 1470 1472 1474 1476 1478 1479 1481 1483 1484 1485 1486 1487 1488 1493 1490 1489 1488 1487 1481 1480 1479 1477 1475 1474 1467 1465 1462 1461 1456 1454 1444 1442 1441 1438 1434 1426 1421 1418 1414 1411 1408 1407 1408 1407 1408 1410
1445 1449 1453 1457 1460 1463 1466 1468 1470 1473 1475 1477 1479 1481 1483 1483 1484 1485 1487 1488 1488 1488 1489 1488 1484 1485 1484 1480 1477 1475 1470 1468 1465 1454 1454 1453 1445 1442 1443 1444 1438 1431 1425 1419 1410 1405 1402 1398 1396 1393 1392 1395 1397 1400
1447 1451 1455 1458 1462 1465 1467 1470 1472 1474 1476 1478 1480 1482 1483 1484 1485 1486 1487 1488 1489 1489 1486 1485 1484 1483 1481 1481 1477 1472 1469 1463 1461 1452 1452 1443 1437 1439 1440 1437 1429 1421 1415 1409 1402 1395 1390 1386 1382 1380 1380 1383 1385 1389
1450 1454 1457 1460 1463 1466 1469 1471 1473 1475 1477 1479 1480 1481 1483 1485 1485 1487 1489 1489 1489 1486 1483 1483 1482 1482 1479 1478 1475 1470 1467 1463 1461 1450 1448 1439 1435 1436 1432 1427 1418 1411 1404 1397 1389 1381 1374 1369 1366 1367 1369 1373 1377 1381
1453 1456 1459 1462 1465 1467 1470 1472 1474 1476 1477 1479 1480 1481 1483 1486 1490 1491 1497 1491 1488 1482 1482 1481 1482 1480 1478 1477 1474 1470 1467 1459 1450 1447 1437 1433 1434 1431 1425 1416 1409 1403 1395 1386 1378 1369 1360 1353 1351 1355 1360 1365 1371 1376
1455 1459 1461 1464 1466 1469 1471 1473 1475 1477 1478 1479 1480 1485 1484 1488 1485 1481 1481 1479 1480 1480 1480 1480 1480 1480 1476 1475 1471 1471 1460 1454 1448 1435 1431 1432 1430 1425 1420 1413 1404 1395 1387 1381 1371 1362 1354 1348 1347 1350 1356 1361 1366 1371
1458 1461 1463 1466 1468 1470 1471 1473 1476 1477 1478 1479 1480 1485 1483 1478 1478 1478 1479 1479 1479 1479 1479 1479 1479 1479 1475 1474 1469 1465 1459 1448 1436 1436 1437 1435 1428 1422 1415 1407 1400 1391 1384 1377 1369 1363 1358 1355 1353 1354 1357 1360 1364 1368
1461 1463 1466 1468 1469 1471 1472 1474 1476 1477 1477 1478 1479 1479 1477 1478 1476 1477 1476 1476 1477 1477 1478 1478 1478 1479 1474 1470 1464 1459 1453 1440 1441 1442 1439 1432 1426 1419 1412 1404 1397 1390 1384 1376 1370 1365 1361 1359 1358 1358 1359 1361 1363 1367
1463 1464 1466 1468 1470 1472 1473 1475 1476 1477 1477 1477 1476 1475 1476 1475 1475 1475 1474 1475 1475 1476 1477 1476 1481 1477 1468 1468 1460 1447 1446 1447 1445 1440 1435 1430 1423 1415 1408 1401 1394 1389 1382 1376 1371 1367 1364 1362 1361 1360 1360 1363 1365 1368
1464 1466 1467 1469 1471 1472 1474 1475 1476 1476 1475 1474 1474 1473 1473 1473 1473 1473 1472 1472 1474 1473 1474 1475 1472 1472 1471 1464 1454 1450 1448 1446 1443 1438 1432 1424 1418 1412 1407 1399 1393 1388 1382 1376 1372 1369 1367 1365 1364 1363 1364 1366 1368 1371
1465 1467 1468 1470 1471 1473 1474 1475 1475 1474 1472 1472 1470 1470 1470 1470 1469 1469 1469 1469 1470 1471 1472 1470 1470 1467 1460 1454 1452 1450 1448 1445 1438 1431 1425 1420 1415 1409 1403 1398 1393 1388 1383 1378 1374 1371 1369 1368 1367 1367 1368 1370 1371 1375
1465 1467 1469 1470 1472 1473 1473 1473 1473 1471 1471 1470 1469 1468 1468 1467 1466 1465 1465 1465 1466 1468 1467 1465 1459 1456 1455 1453 1452 1450 1446 1442 1436 1427 1418 1414 1411 1406 1401 1396 1391 1387 1384 1380 1377 1374 1372 1371 1372 1373 1373 1374 1376 1379
1465 1467 1468 1470 1471 1472 1472 1471 1471 1471 1469 1469 1467 1467 1465 1464 1463 1463 1463 1463 1464 1460 1457 1455 1454 1453 1452 1451 1449 1445 1440 1437 1432 1428 1420 1411 1407 1403 1398 1395 1390 1387 1384 1382 1379 1378 1376 1376 1376 1377 1378 1380 1382 1384
1465 1466 1467 1469 1470 1470 1470 1470 1470 1470 1469 1467 1467 1465 1464 1463 1461 1461 1460 1460 1458 1455 1454 1453 1452 1450 1448 1446 1442 1439 1435 1431 1427 1422 1417 1412 1406 1401 1397 1394 1391 1388 1386 1384 1382 1381 1381 1381 1381 1382 1384 1386 1389 1391
1464 1465 1467 1468 1468 1468 1470 1469 1469 1468 1468 1467 1466 1465 1463 1462 1460 1460 1458 1456 1455 1454 1454 1452 1450 1448 1445 1441 1438 1435 1431 1427 1421 1417 1413 1409 1405 1401 1398 1395 1392 1390 1388 1388 1387 1386 1385 1386 1387 1388 1390 1393 1395 1399
1464 1465 1466 1466 1467 1468 1468 1468 1468 1468 1467 1467 1467 1467 1462 1460 1459 1458 1456 1454 1454 1454 1452 1450 1447 1443 1440 1438 1435 1431 1427 1423 1418 1414 1411 1407 1404 1401 1398 1396 1394 1393 1392 1392 1391 1391 1392 1393 1395 1396 1399 1401 1404 1408
1466 1467 1467 1465 1466 1468 1468 1468 1468 1468 1471 1468 1469 1465 1461 1460 1459 1456 1454 1455 1454 1452 1450 1447 1444 1442 1439 1435 1432 1429 1426 1421 1416 1413 1410 1407 1405 1403 1401 1399 1398 1397 1398 1397 1398 1398 1400 1402 1404 1406 1409 1412 1415 1420
1464 1464 1466 1464 1466 1467 1467 1470 1471 1470 1468 1469 1466 1463 1462 1461 1459 1455 1456 1455 1453 1451 1448 1445 1442 1439 1436 1434 1430 1427 1424 1420 1416 1413 1410 1407 1406 1405 1404 1403 1402 1403 1404 1405 1406 1407 1409 1412 1414 1416 1419 1424 1428 1429
1463 1463 1463 1463 1464 1465 1466 1466 1467 1467 1470 1470 1466 1464 1463 1463 1458 1458 1456 1454 1452 1450 1447 1445 1441 1438 1435 1432 1430 1427 1425 1423 1419 1416 1413 1411 1409 1410 1410 1409 1409 1410 1413 1415 1417 1419 1420 1422 1424 1427 1429 1433 1436 1439
1459 1460 1462 1463 1463 1464 1465 1465 1466 1468 1465 1465 1465 1467 1464 1461 1459 1458 1456 1454 1451 1449 1446 1443 1440 1437 1434 1432 1429 1427 1425 1425 1423 1421 1419 1417 1416 1416 1416 1417 1417 1420 1423 1425 1426 1427 1430 1432 1434 1436 1439 1441 1444 1448
1459 1459 1461 1461 1462 1463 1463 1463 1463 1463 1464 1464 1464 1463 1461 1459 1458 1457 1456 1453 1451 1448 1445 1442 1439 1437 1434 1432 1431 1429 1428 1427 1427 1426 1425 1424 1424 1425 1425 1426 1427 1429 1431 1433 1436 1438 1440 1442 1443 1445 1447 1449 1452 1455
1458 1459 1460 1461 1462 1462 1461 1461 1462 1462 1462 1462 1462 1461 1460 1458 1457 1456 1455 1453 1451 1448 1445 1442 1440 1437 1435 1434 1433 1433 1432 1432 1432 1432 1432 1431 1432 1432 1433 1435 1436 1438 1439 1440 1442 1445 1448 1450 1452 1454 1456 1457 1460 1462
1458 1459 1459 1459 1460 1460 1460 1460 1461 1461 1461 1460 1460 1460 1459 1458 1456 1455 1455 1453 1451 1449 1447 1444 1442 1439 1438 1437 1437 1437 1437 1437 1436 1437 1438 1438 1439 1440 1442 1443 1445 1447 1449 1450 1452 1453 1455 1458 1460 1461 1463 1465 1467 1469
1458 1458 1459 1459 1459 1460 1459 1460 1460 1460 1459 1459 1459 1459 1458 1457 1457 1456 1455 1453 1452 1450 1448 1446 1444 1442 1440 1440 1440 1441 1441 1442 1443 1443 1444 1445 1446 1447 1449 1451 1453 1455 1457 1458 1459 1461 1464 1465 1466 1468 1470 1471 1473 1474
1458 1458 1458 1458 1458 1459 1459 1460 1459 1459 1459 1458 1458 1457 1457 1457 1456 1456 1455 1454 1453 1451 1450 1448 1447 1445 1444 1444 1445 1445 1446 1447 1448 1449 1450 1451 1453 1454 1456 1458 1460 1462 1464 1465 1466 1468 1470 1472 1473 1475 1476 1477 1478 1479